• In Uzbekistan
  • List of Countries
  • For 7 days
  • Water Temperature
  • Satellite Maps
  • Weather Map
  • Weather Widgets
  • user-avatar
    Login

    Hourly Weather Stadtlohn

    Today, 20 September, Wednesday

    Time Temperature Precipitation Wind Pressure Humidity
    00:00 +10°C° 0 mm 2 mps 760 mmHg 90%
    01:00 +10°C° 0 mm 2 mps 760 mmHg 90%
    02:00 +10°C° 0 mm 2 mps 760 mmHg 91%
    03:00 +10°C° 0 mm 2 mps 759 mmHg 91%
    04:00 +10°C° 0.1 mm 2 mps 759 mmHg 91%
    05:00 +10°C° 0.1 mm 2 mps 759 mmHg 91%
    06:00 +12°C° 0 mm 2 mps 760 mmHg 91%
    07:00 +12°C° 0.2 mm 2 mps 760 mmHg 87%
    08:00 +12°C° 0.2 mm 3 mps 760 mmHg 84%
    09:00 +13°C° 0.2 mm 3 mps 760 mmHg 80%
    10:00 +14°C° 0.1 mm 3 mps 760 mmHg 75%
    11:00 +15°C° 0.1 mm 4 mps 760 mmHg 70%
    12:00 +17°C° 0.1 mm 4 mps 760 mmHg 65%
    13:00 +17°C° 0 mm 4 mps 760 mmHg 64%
    14:00 +17°C° 0 mm 3 mps 759 mmHg 63%
    15:00 +17°C° 0 mm 3 mps 759 mmHg 63%
    16:00 +16°C° 0 mm 3 mps 759 mmHg 67%
    17:00 +15°C° 0 mm 2 mps 760 mmHg 72%
    18:00 +14°C° 0 mm 2 mps 760 mmHg 76%
    19:00 +14°C° 0 mm 2 mps 760 mmHg 78%
    20:00 +13°C° 0 mm 2 mps 760 mmHg 79%
    21:00 +13°C° 0 mm 2 mps 760 mmHg 81%
    22:00 +12°C° 0 mm 2 mps 760 mmHg 81%
    23:00 +12°C° 0 mm 2 mps 760 mmHg 81%

    Tomorrow, 21 September, Thursday

    Time Temperature Precipitation Wind Pressure Humidity
    00:00 +12°C° 0 mm 2 mps 760 mmHg 82%
    01:00 +12°C° 0 mm 2 mps 760 mmHg 84%
    02:00 +12°C° 0 mm 2 mps 760 mmHg 86%
    03:00 +10°C° 0 mm 2 mps 760 mmHg 88%
    04:00 +10°C° 0 mm 2 mps 760 mmHg 88%
    05:00 +10°C° 0 mm 2 mps 760 mmHg 89%
    06:00 +10°C° 0 mm 2 mps 760 mmHg 89%
    07:00 +13°C° 0 mm 2 mps 760 mmHg 82%
    08:00 +14°C° 0 mm 2 mps 760 mmHg 75%
    09:00 +16°C° 0 mm 2 mps 760 mmHg 68%
    10:00 +17°C° 0 mm 2 mps 760 mmHg 64%
    11:00 +18°C° 0 mm 2 mps 759 mmHg 59%
    12:00 +19°C° 0 mm 2 mps 759 mmHg 54%
    13:00 +20°C° 0 mm 2 mps 759 mmHg 54%
    14:00 +20°C° 0 mm 2 mps 758 mmHg 53%
    15:00 +20°C° 0 mm 2 mps 758 mmHg 53%
    16:00 +19°C° 0 mm 2 mps 758 mmHg 57%
    17:00 +17°C° 0 mm 2 mps 758 mmHg 62%
    18:00 +16°C° 0 mm 2 mps 758 mmHg 66%
    19:00 +15°C° 0 mm 2 mps 759 mmHg 68%
    20:00 +15°C° 0 mm 2 mps 759 mmHg 70%
    21:00 +14°C° 0 mm 2 mps 759 mmHg 72%
    22:00 +14°C° 0 mm 2 mps 759 mmHg 73%
    23:00 +14°C° 0 mm 2 mps 759 mmHg 74%

    Day after tomorrow, 22 September, Friday

    Time Temperature Precipitation Wind Pressure Humidity
    00:00 +13°C° 0 mm 2 mps 759 mmHg 76%
    01:00 +13°C° 0 mm 2 mps 758 mmHg 77%
    02:00 +13°C° 0 mm 2 mps 758 mmHg 78%
    03:00 +12°C° 0 mm 2 mps 758 mmHg 80%
    04:00 +12°C° 0 mm 2 mps 758 mmHg 81%
    05:00 +12°C° 0 mm 2 mps 758 mmHg 82%
    06:00 +12°C° 0 mm 2 mps 758 mmHg 83%
    07:00 +13°C° 0 mm 2 mps 759 mmHg 79%
    08:00 +15°C° 0 mm 2 mps 759 mmHg 76%
    09:00 +16°C° 0 mm 2 mps 759 mmHg 72%
    10:00 +17°C° 0 mm 2 mps 759 mmHg 70%
    11:00 +18°C° 0 mm 2 mps 759 mmHg 68%
    12:00 +19°C° 0 mm 2 mps 759 mmHg 66%
    13:00 +19°C° 0.3 mm 3 mps 760 mmHg 68%
    14:00 +19°C° 0.3 mm 3 mps 760 mmHg 69%
    15:00 +19°C° 0.3 mm 3 mps 760 mmHg 70%
    16:00 +18°C° 0.3 mm 3 mps 760 mmHg 75%
    17:00 +17°C° 0.3 mm 4 mps 761 mmHg 80%
    18:00 +14°C° 0.3 mm 4 mps 761 mmHg 85%
    19:00 +13°C° 0 mm 3 mps 761 mmHg 87%
    20:00 +13°C° 0 mm 3 mps 762 mmHg 89%
    21:00 +12°C° 0 mm 3 mps 762 mmHg 90%
    22:00 +12°C° 0 mm 2 mps 763 mmHg 90%
    23:00 +10°C° 0 mm 2 mps 763 mmHg 90%

    23 September, Saturday

    Time Temperature Precipitation Wind Pressure Humidity
    00:00 +10°C° 0 mm 2 mps 763 mmHg 89%
    01:00 +9°C° 0 mm 2 mps 763 mmHg 89%
    02:00 +9°C° 0 mm 2 mps 763 mmHg 88%
    03:00 +10°C° 0 mm 1 mps 763 mmHg 88%
    04:00 +9°C° 0 mm 2 mps 763 mmHg 87%
    05:00 +8°C° 0 mm 2 mps 763 mmHg 87%
    06:00 +8°C° 0 mm 2 mps 764 mmHg 86%
    07:00 +10°C° 0 mm 2 mps 764 mmHg 80%
    08:00 +13°C° 0 mm 2 mps 764 mmHg 74%
    09:00 +15°C° 0 mm 2 mps 764 mmHg 68%
    10:00 +16°C° 0 mm 2 mps 764 mmHg 62%
    11:00 +18°C° 0 mm 1 mps 764 mmHg 56%
    12:00 +19°C° 0 mm 1 mps 764 mmHg 50%
    13:00 +20°C° 0 mm 1 mps 763 mmHg 49%
    14:00 +20°C° 0 mm 1 mps 763 mmHg 48%
    15:00 +20°C° 0 mm 1 mps 763 mmHg 47%
    16:00 +19°C° 0 mm 1 mps 763 mmHg 51%
    17:00 +16°C° 0 mm 1 mps 763 mmHg 56%
    18:00 +15°C° 0 mm 1 mps 763 mmHg 61%
    19:00 +14°C° 0 mm 1 mps 764 mmHg 62%
    20:00 +14°C° 0 mm 1 mps 764 mmHg 64%
    21:00 +13°C° 0 mm 1 mps 764 mmHg 65%
    22:00 +13°C° 0 mm 2 mps 764 mmHg 66%
    23:00 +12°C° 0 mm 2 mps 764 mmHg 67%

    24 September, Sunday

    Time Temperature Precipitation Wind Pressure Humidity
    00:00 +12°C° 0 mm 2 mps 764 mmHg 68%
    01:00 +12°C° 0 mm 2 mps 764 mmHg 70%
    02:00 +10°C° 0 mm 2 mps 764 mmHg 71%
    03:00 +10°C° 0 mm 2 mps 764 mmHg 73%
    04:00 +10°C° 0 mm 2 mps 764 mmHg 76%
    05:00 +10°C° 0 mm 2 mps 764 mmHg 78%
    06:00 +10°C° 0 mm 2 mps 764 mmHg 81%
    07:00 +13°C° 0 mm 2 mps 764 mmHg 77%
    08:00 +14°C° 0 mm 3 mps 764 mmHg 72%
    09:00 +17°C° 0 mm 3 mps 764 mmHg 68%
    10:00 +18°C° 0 mm 3 mps 764 mmHg 64%
    11:00 +19°C° 0 mm 3 mps 764 mmHg 60%
    12:00 +20°C° 0 mm 3 mps 764 mmHg 57%
    13:00 +21°C° 0 mm 3 mps 763 mmHg 57%
    14:00 +21°C° 0 mm 3 mps 763 mmHg 57%
    15:00 +21°C° 0 mm 3 mps 763 mmHg 58%
    16:00 +20°C° 0 mm 3 mps 763 mmHg 64%
    17:00 +18°C° 0 mm 3 mps 763 mmHg 70%
    18:00 +17°C° 0 mm 3 mps 764 mmHg 76%
    19:00 +16°C° 0 mm 3 mps 764 mmHg 78%
    20:00 +16°C° 0 mm 3 mps 764 mmHg 80%
    21:00 +14°C° 0 mm 3 mps 764 mmHg 81%
    22:00 +14°C° 0 mm 3 mps 764 mmHg 83%
    23:00 +13°C° 0 mm 3 mps 764 mmHg 84%

    25 September, Monday

    Time Temperature Precipitation Wind Pressure Humidity
    00:00 +13°C° 0 mm 3 mps 764 mmHg 86%
    01:00 +12°C° 0 mm 3 mps 764 mmHg 86%
    02:00 +12°C° 0 mm 3 mps 764 mmHg 87%
    03:00 +12°C° 0 mm 3 mps 764 mmHg 88%
    04:00 +12°C° 0 mm 3 mps 764 mmHg 88%
    05:00 +11°C° 0 mm 3 mps 764 mmHg 88%
    06:00 +11°C° 0 mm 3 mps 764 mmHg 88%
    07:00 +13°C° 0 mm 3 mps 764 mmHg 81%
    08:00 +16°C° 0 mm 3 mps 764 mmHg 74%
    09:00 +17°C° 0 mm 4 mps 764 mmHg 67%
    10:00 +18°C° 0 mm 4 mps 764 mmHg 63%
    11:00 +19°C° 0 mm 4 mps 764 mmHg 59%
    12:00 +21°C° 0 mm 4 mps 763 mmHg 55%
    13:00 +21°C° 0 mm 4 mps 763 mmHg 56%
    14:00 +21°C° 0 mm 4 mps 763 mmHg 57%
    15:00 +21°C° 0 mm 4 mps 763 mmHg 59%
    16:00 +19°C° 0 mm 4 mps 763 mmHg 64%
    17:00 +18°C° 0 mm 4 mps 763 mmHg 70%
    18:00 +17°C° 0 mm 3 mps 763 mmHg 75%
    19:00 +16°C° 0 mm 3 mps 763 mmHg 78%
    20:00 +14°C° 0 mm 3 mps 763 mmHg 80%
    21:00 +14°C° 0 mm 3 mps 763 mmHg 82%
    22:00 +13°C° 0 mm 3 mps 763 mmHg 85%
    23:00 +13°C° 0 mm 3 mps 763 mmHg 87%
    Show more